Location: Chippewa Lake
(41.0698°N, 81.9010°W)
Time: 20:23:35
(UTC+00:00)

Cosmos 1862 - Pass Details

Date: 09 May 2021
Orbit: 538 x 554 km, 82.5° (Epoch: 17 June)

Event Time Altitude Azimuth Distance (km) Brightness Sun altitude
Rises 00:56:30 0° 355° (N) 2,718 7.4 -4.9°
Reaches altitude 10° 00:58:41 10° 359° (N) 1,823 6.4 -5.3°
Maximum altitude 01:02:40 63° 80° (E) 616 3.4 -6.0°
Drops below altitude 10° 01:06:38 10° 163° (SSE) 1,818 5.5 -6.6°
Sets 01:08:48 0° 166° (SSE) 2,709 6.4 -7.0°
